Showing default

ICEYE-X4, 44390

Orbit data source: Space-Track

ICEYE-X4, 44390 is a payload satellite owned by ICEYE (FI) in SSO that was launched on Fri, 05 Jul 2019 UTC via a SOYUZ-2-1B launch vehicle from the Vostochny Cosmodrome (VOSTO). Payload-class satellites include a variety of spacecraft equipped with specific instruments for various scientific and technological missions. These include communications satellites like Starlink; space stations such as the ISS; scientific satellites like the Hubble; Earth observation satellites from companies like Planet Labs, Umbra, and HawkEye 360; GPS; miniature CubeSats for education and research; and military/defense satellites.

Loading next visibility...
Identifier
44390, 2019-038D
Orbit
SSO
Last TLE update
10 hours ago
Origin
Manufacturer
ICEYE
Mission
Operational Commercial Radar Imaging
Bus & Motor
ICEYE, Unknown motor
Mass
80 kg wet, 80 kg dry
Launch date (UTC)
2019-07-05 (6 years ago)
Launch vehicle
SOYUZ-2-1B
Launch site
Vostochny Cosmodrome (VOSTO)
Object type
Payload
Rocket body
Debris
Shape & HBR
Box + 1 Pan, 3.25 m
Radar Cross Section
1.837 m², Medium (>0.1 m² and < 1m²)

Expand to show TLE details & history

TLE from 10 hours ago
0 ICEYE-X4
1 44390U 19038D   25181.56737458  .00007182  00000-0  33275-3 0  9994
2 44390  97.9017 190.6412 0018110  88.8884 271.4425 15.20280011328225
Epoch: 2025-06-30T13:37Z
TLE epoch observation values (Epoch: 2025-06-30T13:37:01.163Z)
Latitude
Longitude
67.51103°
Altitude
507.78 km
Speed
7.61 km/s
True Right ascension
12h 42m 33s
True Declination
0° 00' 00"
Sunlit
Object was in daylight at epoch
Visualization orbit readout
Latitude
76.57191°
Longitude
-76.73772°
Altitude
505.858 km
Speed
7.625 km/s
Apparent Right ascension
00h 02m 58s
Apparent Declination
23° 51' 58"
Sunlit
Object is in daylight
Visualization observer readout
Local Sidereal Time
11:08:50
Azimuth
346.342° N
Elevation
-24.98°
Doppler factor
1
Orbital elements
Apogee altitude
514.443 km
Perigee altitude
489.523 km
Semi-major axis
6,880.12 km
Eccentricity
0.00181
Inclination
97.9017°
RAAN
190.6412°
Arg. of periapsis
88.8884°
True anomaly
Unknown
Mean anomaly
271.4425°
Eccentric anomaly
Unknown
Mean motion
3.8032 °/min
Orbital period
94.66 mins
BSTAR
0.00033275
Loading maneuver chart data...
Loading SW <> Apogee altitude chart data...

ICEYE-X4 Visibility forecast

Observer location: undefined°, undefined°

Span
Click to sort rows by Start time (UTC) header in descending order
Start Az.
Max El. time (UTC)
Max El. Az.
Max El.
End time (UTC)
End Az.
6 mins2025-07-01 00:48:10.545Z177.895° S2025-07-01 00:51:10.545Z283.463° WNW41.771°2025-07-01 00:54:10.545Z340.528° N
5 mins2025-07-01 13:53:10.545Z348.201° N2025-07-01 13:55:10.545Z280.058° WNW35.665°2025-07-01 13:58:10.545Z214.568° SW
|